Time,TemperatureF,DewpointF,PressureIn,WindDirection,WindDirectionDegrees,WindSpeedMPH,WindSpeedGustMPH,Humidity,HourlyPrecipIn,Conditions,Clouds,dailyrainin,SoftwareType,DateUTC
2013-05-26 00:03:00,46.0,-99.9,29.75,West,262,6.0,11.0,-999,-99.99,,,-99.99,,2013-05-26 04:03:00,
2013-05-26 00:13:00,46.0,-99.9,29.75,West,261,6.0,12.0,-999,-99.99,,,-99.99,,2013-05-26 04:13:00,
2013-05-26 00:23:00,46.0,-99.9,29.75,West,261,6.0,12.0,-999,-99.99,,,-99.99,,2013-05-26 04:23:00,
2013-05-26 00:33:00,45.0,-99.9,29.75,West,262,9.0,13.0,-999,-99.99,,,-99.99,,2013-05-26 04:33:00,
2013-05-26 00:43:00,45.0,-99.9,29.75,WSW,257,9.0,16.0,-999,-99.99,,,-99.99,,2013-05-26 04:43:00,
2013-05-26 00:52:00,45.0,-99.9,29.75,West,268,8.0,12.0,-999,-99.99,,,-99.99,,2013-05-26 04:52:00,
2013-05-26 01:03:00,45.0,-99.9,29.76,West,267,7.0,14.0,-999,-99.99,,,-99.99,,2013-05-26 05:03:00,
2013-05-26 01:12:00,44.0,-99.9,29.76,West,265,8.0,15.0,-999,-99.99,,,-99.99,,2013-05-26 05:12:00,
2013-05-26 01:22:00,45.0,-99.9,29.76,West,271,6.0,12.0,-999,-99.99,,,-99.99,,2013-05-26 05:22:00,
2013-05-26 01:32:00,44.0,-99.9,29.76,West,272,9.0,15.0,-999,-99.99,,,-99.99,,2013-05-26 05:32:00,
2013-05-26 01:42:00,44.0,-99.9,29.76,West,268,8.0,15.0,-999,-99.99,,,-99.99,,2013-05-26 05:42:00,
2013-05-26 01:52:00,44.0,-99.9,29.76,West,269,7.0,17.0,-999,-99.99,,,-99.99,,2013-05-26 05:52:00,
2013-05-26 02:01:00,44.0,-99.9,29.76,West,271,6.0,14.0,-999,-99.99,,,-99.99,,2013-05-26 06:01:00,
2013-05-26 02:12:00,44.0,-99.9,29.76,West,274,9.0,16.0,-999,-99.99,,,-99.99,,2013-05-26 06:12:00,
2013-05-26 02:22:00,44.0,-99.9,29.76,West,274,9.0,15.0,-999,-99.99,,,-99.99,,2013-05-26 06:22:00,
2013-05-26 02:32:00,44.0,-99.9,29.76,West,268,7.0,13.0,-999,-99.99,,,-99.99,,2013-05-26 06:32:00,
2013-05-26 02:42:00,44.0,-99.9,29.76,West,271,8.0,15.0,-999,-99.99,,,-99.99,,2013-05-26 06:42:00,
2013-05-26 02:52:00,44.0,-99.9,29.76,West,274,7.0,16.0,-999,-99.99,,,-99.99,,2013-05-26 06:52:00,
2013-05-26 03:02:00,44.0,-99.9,29.75,West,281,8.0,12.0,-999,-99.99,,,-99.99,,2013-05-26 07:02:00,
2013-05-26 03:11:00,44.0,-99.9,29.75,West,267,9.0,14.0,-999,-99.99,,,-99.99,,2013-05-26 07:11:00,
2013-05-26 03:22:00,44.0,-99.9,29.75,West,276,10.0,17.0,-999,-99.99,,,-99.99,,2013-05-26 07:22:00,
2013-05-26 03:32:00,44.0,-99.9,29.75,West,270,10.0,15.0,-999,-99.99,,,-99.99,,2013-05-26 07:32:00,
2013-05-26 03:42:00,44.0,-99.9,29.75,West,269,7.0,15.0,-999,-99.99,,,-99.99,,2013-05-26 07:42:00,
2013-05-26 03:52:00,44.0,-99.9,29.75,West,272,7.0,11.0,-999,-99.99,,,-99.99,,2013-05-26 07:52:00,
2013-05-26 04:02:00,45.0,-99.9,29.75,West,267,5.0,13.0,-999,-99.99,,,-99.99,,2013-05-26 08:02:00,
2013-05-26 04:12:00,45.0,-99.9,29.75,West,268,7.0,13.0,-999,-99.99,,,-99.99,,2013-05-26 08:12:00,
2013-05-26 04:22:00,45.0,-99.9,29.75,West,269,12.0,20.0,-999,-99.99,,,-99.99,,2013-05-26 08:22:00,
2013-05-26 04:32:00,45.0,-99.9,29.75,West,274,10.0,20.0,-999,-99.99,,,-99.99,,2013-05-26 08:32:00,
2013-05-26 04:42:00,45.0,-99.9,29.75,West,273,9.0,16.0,-999,-99.99,,,-99.99,,2013-05-26 08:42:00,
2013-05-26 04:53:00,45.0,-99.9,29.75,WSW,252,5.0,15.0,-999,-99.99,,,-99.99,,2013-05-26 08:53:00,
2013-05-26 05:01:00,45.0,-99.9,29.75,West,274,7.0,15.0,-999,-99.99,,,-99.99,,2013-05-26 09:01:00,
2013-05-26 05:11:00,46.0,-99.9,29.75,West,273,12.0,16.0,-999,-99.99,,,-99.99,,2013-05-26 09:11:00,
2013-05-26 05:22:00,46.0,-99.9,29.75,West,272,12.0,24.0,-999,-99.99,,,-99.99,,2013-05-26 09:22:00,
2013-05-26 05:34:00,45.0,-99.9,29.76,WNW,285,12.0,22.0,-999,-99.99,,,-99.99,,2013-05-26 09:34:00,
2013-05-26 05:43:00,45.0,-99.9,29.76,WNW,286,11.0,20.0,-999,-99.99,,,-99.99,,2013-05-26 09:43:00,
2013-05-26 05:53:00,45.0,-99.9,29.77,West,278,11.0,15.0,-999,-99.99,,,-99.99,,2013-05-26 09:53:00,
2013-05-26 06:03:00,45.0,-99.9,29.77,West,275,14.0,22.0,-999,-99.99,,,-99.99,,2013-05-26 10:03:00,
2013-05-26 06:12:00,45.0,-99.9,29.78,West,280,10.0,17.0,-999,-99.99,,,-99.99,,2013-05-26 10:12:00,
2013-05-26 06:23:00,45.0,-99.9,29.78,West,273,11.0,20.0,-999,-99.99,,,-99.99,,2013-05-26 10:23:00,
2013-05-26 06:33:00,45.0,-99.9,29.78,West,275,12.0,19.0,-999,-99.99,,,-99.99,,2013-05-26 10:33:00,
2013-05-26 06:42:00,45.0,-99.9,29.78,WNW,282,10.0,24.0,-999,-99.99,,,-99.99,,2013-05-26 10:42:00,
2013-05-26 06:52:00,45.0,-99.9,29.78,West,273,8.0,22.0,-999,-99.99,,,-99.99,,2013-05-26 10:52:00,
2013-05-26 07:03:00,45.0,-99.9,29.78,West,280,9.0,21.0,-999,-99.99,,,-99.99,,2013-05-26 11:03:00,
2013-05-26 07:12:00,46.0,-99.9,29.78,WNW,291,13.0,23.0,-999,-99.99,,,-99.99,,2013-05-26 11:12:00,
2013-05-26 07:22:00,46.0,-99.9,29.79,WNW,285,10.0,22.0,-999,-99.99,,,-99.99,,2013-05-26 11:22:00,
2013-05-26 07:33:00,46.0,-99.9,29.79,West,277,11.0,19.0,-999,-99.99,,,-99.99,,2013-05-26 11:33:00,
2013-05-26 07:43:00,46.0,-99.9,29.79,West,277,12.0,16.0,-999,-99.99,,,-99.99,,2013-05-26 11:43:00,
2013-05-26 07:52:00,46.0,-99.9,29.80,West,279,9.0,18.0,-999,-99.99,,,-99.99,,2013-05-26 11:52:00,
2013-05-26 08:02:00,46.0,-99.9,29.80,WNW,282,11.0,20.0,-999,-99.99,,,-99.99,,2013-05-26 12:02:00,
2013-05-26 08:12:00,46.0,-99.9,29.80,West,273,8.0,19.0,-999,-99.99,,,-99.99,,2013-05-26 12:12:00,
2013-05-26 08:22:00,46.0,-99.9,29.80,West,269,8.0,21.0,-999,-99.99,,,-99.99,,2013-05-26 12:22:00,
2013-05-26 08:32:00,47.0,-99.9,29.80,West,274,11.0,20.0,-999,-99.99,,,-99.99,,2013-05-26 12:32:00,
2013-05-26 08:42:00,47.0,-99.9,29.81,WNW,282,11.0,22.0,-999,-99.99,,,-99.99,,2013-05-26 12:42:00,
2013-05-26 08:52:00,48.0,-99.9,29.81,WNW,282,7.0,22.0,-999,-99.99,,,-99.99,,2013-05-26 12:52:00,
2013-05-26 09:02:00,48.0,-99.9,29.81,WNW,287,13.0,21.0,-999,-99.99,,,-99.99,,2013-05-26 13:02:00,
2013-05-26 09:11:00,48.0,-99.9,29.82,West,281,11.0,19.0,-999,-99.99,,,-99.99,,2013-05-26 13:11:00,
2013-05-26 09:22:00,49.0,-99.9,29.82,WNW,289,10.0,24.0,-999,-99.99,,,-99.99,,2013-05-26 13:22:00,
2013-05-26 09:32:00,48.0,-99.9,29.82,WNW,283,8.0,21.0,-999,-99.99,,,-99.99,,2013-05-26 13:32:00,
2013-05-26 09:42:00,48.0,-99.9,29.82,West,275,11.0,18.0,-999,-99.99,,,-99.99,,2013-05-26 13:42:00,
2013-05-26 09:52:00,49.0,-99.9,29.83,WNW,288,14.0,24.0,-999,-99.99,,,-99.99,,2013-05-26 13:52:00,
2013-05-26 10:02:00,49.0,-99.9,29.83,WNW,290,12.0,22.0,-999,-99.99,,,-99.99,,2013-05-26 14:02:00,
2013-05-26 10:11:00,49.0,-99.9,29.83,WNW,287,11.0,24.0,-999,-99.99,,,-99.99,,2013-05-26 14:11:00,
2013-05-26 10:22:00,49.0,-99.9,29.83,WNW,288,12.0,24.0,-999,-99.99,,,-99.99,,2013-05-26 14:22:00,
2013-05-26 10:32:00,50.0,-99.9,29.84,West,267,11.0,23.0,-999,-99.99,,,-99.99,,2013-05-26 14:32:00,
2013-05-26 10:42:00,50.0,-99.9,29.84,West,280,15.0,23.0,-999,-99.99,,,-99.99,,2013-05-26 14:42:00,
2013-05-26 10:52:00,50.0,-99.9,29.84,West,276,13.0,25.0,-999,-99.99,,,-99.99,,2013-05-26 14:52:00,
2013-05-26 11:02:00,51.0,-99.9,29.85,WNW,289,14.0,21.0,-999,-99.99,,,-99.99,,2013-05-26 15:02:00,
2013-05-26 11:12:00,51.0,-99.9,29.85,WNW,295,12.0,26.0,-999,-99.99,,,-99.99,,2013-05-26 15:12:00,
2013-05-26 11:22:00,51.0,-99.9,29.85,West,281,11.0,23.0,-999,-99.99,,,-99.99,,2013-05-26 15:22:00,
2013-05-26 11:33:00,51.0,-99.9,29.86,West,275,8.0,24.0,-999,-99.99,,,-99.99,,2013-05-26 15:33:00,
2013-05-26 11:43:00,51.0,-99.9,29.86,WNW,290,17.0,22.0,-999,-99.99,,,-99.99,,2013-05-26 15:43:00,
2013-05-26 11:53:00,52.0,-99.9,29.87,WNW,288,14.0,25.0,-999,-99.99,,,-99.99,,2013-05-26 15:53:00,
2013-05-26 12:03:00,52.0,-99.9,29.87,WNW,289,13.0,22.0,-999,-99.99,,,-99.99,,2013-05-26 16:03:00,
2013-05-26 12:12:00,52.0,-99.9,29.87,WNW,289,13.0,22.0,-999,-99.99,,,-99.99,,2013-05-26 16:12:00,
2013-05-26 12:23:00,53.0,-99.9,29.87,West,279,12.0,20.0,-999,-99.99,,,-99.99,,2013-05-26 16:23:00,
2013-05-26 12:33:00,54.0,-99.9,29.88,WNW,286,11.0,24.0,-999,-99.99,,,-99.99,,2013-05-26 16:33:00,
2013-05-26 12:43:00,53.0,-99.9,29.88,WNW,293,14.0,22.0,-999,-99.99,,,-99.99,,2013-05-26 16:43:00,
2013-05-26 12:53:00,53.0,-99.9,29.88,West,270,13.0,21.0,-999,-99.99,,,-99.99,,2013-05-26 16:53:00,
2013-05-26 13:02:00,53.0,-99.9,29.88,WNW,287,13.0,24.0,-999,-99.99,,,-99.99,,2013-05-26 17:02:00,
2013-05-26 13:12:00,54.0,-99.9,29.88,WNW,290,14.0,22.0,-999,-99.99,,,-99.99,,2013-05-26 17:12:00,
2013-05-26 13:23:00,53.0,-99.9,29.89,West,269,12.0,20.0,-999,-99.99,,,-99.99,,2013-05-26 17:23:00,
2013-05-26 13:32:00,53.0,-99.9,29.89,West,271,11.0,23.0,-999,-99.99,,,-99.99,,2013-05-26 17:32:00,
2013-05-26 13:42:00,54.0,-99.9,29.88,West,268,8.0,18.0,-999,-99.99,,,-99.99,,2013-05-26 17:42:00,
2013-05-26 13:52:00,54.0,-99.9,29.89,WNW,297,14.0,20.0,-999,-99.99,,,-99.99,,2013-05-26 17:52:00,
2013-05-26 14:01:00,55.0,-99.9,29.88,West,274,8.0,21.0,-999,-99.99,,,-99.99,,2013-05-26 18:01:00,
2013-05-26 14:12:00,55.0,-99.9,29.89,West,261,9.0,15.0,-999,-99.99,,,-99.99,,2013-05-26 18:12:00,
2013-05-26 14:22:00,55.0,-99.9,29.89,WSW,255,12.0,21.0,-999,-99.99,,,-99.99,,2013-05-26 18:22:00,
2013-05-26 14:32:00,55.0,-99.9,29.89,WSW,257,9.0,16.0,-999,-99.99,,,-99.99,,2013-05-26 18:32:00,
2013-05-26 14:42:00,55.0,-99.9,29.89,WSW,257,9.0,16.0,-999,-99.99,,,-99.99,,2013-05-26 18:42:00,
2013-05-26 14:52:00,55.0,-99.9,29.89,WSW,242,12.0,14.0,-999,-99.99,,,-99.99,,2013-05-26 18:52:00,
2013-05-26 15:01:00,55.0,-99.9,29.89,West,272,13.0,18.0,-999,-99.99,,,-99.99,,2013-05-26 19:01:00,
2013-05-26 15:11:00,54.0,-99.9,29.90,WSW,255,7.0,21.0,-999,-99.99,,,-99.99,,2013-05-26 19:11:00,
2013-05-26 15:22:00,55.0,-99.9,29.90,WSW,252,9.0,18.0,-999,-99.99,,,-99.99,,2013-05-26 19:22:00,
2013-05-26 15:32:00,55.0,-99.9,29.90,WSW,245,9.0,14.0,-999,-99.99,,,-99.99,,2013-05-26 19:32:00,
2013-05-26 15:42:00,55.0,-99.9,29.91,WSW,256,9.0,25.0,-999,-99.99,,,-99.99,,2013-05-26 19:42:00,
2013-05-26 15:52:00,55.0,-99.9,29.91,West,277,7.0,15.0,-999,-99.99,,,-99.99,,2013-05-26 19:52:00,
2013-05-26 16:02:00,56.0,-99.9,29.91,West,264,12.0,19.0,-999,-99.99,,,-99.99,,2013-05-26 20:02:00,
2013-05-26 16:11:00,56.0,-99.9,29.91,West,265,13.0,20.0,-999,-99.99,,,-99.99,,2013-05-26 20:11:00,
2013-05-26 16:22:00,55.0,-99.9,29.91,West,260,12.0,19.0,-999,-99.99,,,-99.99,,2013-05-26 20:22:00,
2013-05-26 16:32:00,56.0,-99.9,29.91,West,260,8.0,14.0,-999,-99.99,,,-99.99,,2013-05-26 20:32:00,
2013-05-26 16:42:00,56.0,-99.9,29.92,West,265,10.0,19.0,-999,-99.99,,,-99.99,,2013-05-26 20:42:00,
2013-05-26 16:53:00,56.0,-99.9,29.93,WSW,257,8.0,17.0,-999,-99.99,,,-99.99,,2013-05-26 20:53:00,
2013-05-26 17:02:00,56.0,-99.9,29.93,West,261,6.0,15.0,-999,-99.99,,,-99.99,,2013-05-26 21:02:00,
2013-05-26 17:12:00,56.0,-99.9,29.93,West,266,11.0,16.0,-999,-99.99,,,-99.99,,2013-05-26 21:12:00,
2013-05-26 17:22:00,55.0,-99.9,29.94,WSW,257,11.0,21.0,-999,-99.99,,,-99.99,,2013-05-26 21:22:00,
2013-05-26 17:33:00,56.0,-99.9,29.94,West,262,10.0,19.0,-999,-99.99,,,-99.99,,2013-05-26 21:33:00,
2013-05-26 17:43:00,56.0,-99.9,29.94,WSW,256,7.0,14.0,-999,-99.99,,,-99.99,,2013-05-26 21:43:00,
2013-05-26 17:53:00,56.0,-99.9,29.95,West,262,9.0,15.0,-999,-99.99,,,-99.99,,2013-05-26 21:53:00,
2013-05-26 18:03:00,55.0,-99.9,29.95,WSW,252,10.0,19.0,-999,-99.99,,,-99.99,,2013-05-26 22:03:00,
2013-05-26 18:12:00,54.0,-99.9,29.95,West,272,9.0,16.0,-999,-99.99,,,-99.99,,2013-05-26 22:12:00,
2013-05-26 18:23:00,56.0,-99.9,29.96,West,263,5.0,11.0,-999,-99.99,,,-99.99,,2013-05-26 22:23:00,
2013-05-26 18:33:00,56.0,-99.9,29.96,West,265,6.0,12.0,-999,-99.99,,,-99.99,,2013-05-26 22:33:00,
2013-05-26 18:42:00,56.0,-99.9,29.96,West,261,5.0,12.0,-999,-99.99,,,-99.99,,2013-05-26 22:42:00,
2013-05-26 18:53:00,56.0,-99.9,29.97,West,269,6.0,12.0,-999,-99.99,,,-99.99,,2013-05-26 22:53:00,
2013-05-26 19:02:00,57.0,-99.9,29.97,West,281,7.0,12.0,-999,-99.99,,,-99.99,,2013-05-26 23:02:00,
2013-05-26 19:12:00,57.0,-99.9,29.98,WNW,286,7.0,11.0,-999,-99.99,,,-99.99,,2013-05-26 23:12:00,
2013-05-26 19:22:00,57.0,-99.9,29.98,NW,308,8.0,20.0,-999,-99.99,,,-99.99,,2013-05-26 23:22:00,
2013-05-26 19:32:00,57.0,-99.9,29.99,WNW,295,14.0,18.0,-999,-99.99,,,-99.99,,2013-05-26 23:32:00,
2013-05-26 19:43:00,57.0,-99.9,29.99,WNW,287,7.0,18.0,-999,-99.99,,,-99.99,,2013-05-26 23:43:00,
2013-05-26 19:52:00,56.0,-99.9,30.00,WNW,294,11.0,15.0,-999,-99.99,,,-99.99,,2013-05-26 23:52:00,
2013-05-26 20:02:00,56.0,-99.9,30.00,WNW,294,10.0,18.0,-999,-99.99,,,-99.99,,2013-05-27 00:02:00,
2013-05-26 20:11:00,56.0,-99.9,30.00,WNW,292,10.0,16.0,-999,-99.99,,,-99.99,,2013-05-27 00:11:00,
2013-05-26 20:22:00,56.0,-99.9,30.01,WNW,284,10.0,15.0,-999,-99.99,,,-99.99,,2013-05-27 00:22:00,
2013-05-26 20:32:00,56.0,-99.9,30.01,West,278,9.0,17.0,-999,-99.99,,,-99.99,,2013-05-27 00:32:00,
2013-05-26 20:42:00,55.0,-99.9,30.02,WNW,285,7.0,13.0,-999,-99.99,,,-99.99,,2013-05-27 00:42:00,
2013-05-26 20:52:00,55.0,-99.9,30.02,WNW,286,9.0,15.0,-999,-99.99,,,-99.99,,2013-05-27 00:52:00,
2013-05-26 21:01:00,55.0,-99.9,30.03,WNW,286,9.0,19.0,-999,-99.99,,,-99.99,,2013-05-27 01:01:00,
2013-05-26 21:11:00,56.0,-99.9,30.03,WNW,301,13.0,19.0,-999,-99.99,,,-99.99,,2013-05-27 01:11:00,
2013-05-26 21:22:00,56.0,-99.9,30.04,NW,307,14.0,22.0,-999,-99.99,,,-99.99,,2013-05-27 01:22:00,
2013-05-26 21:32:00,56.0,-99.9,30.05,NW,307,13.0,21.0,-999,-99.99,,,-99.99,,2013-05-27 01:32:00,
2013-05-26 21:42:00,55.0,-99.9,30.05,NW,307,10.0,21.0,-999,-99.99,,,-99.99,,2013-05-27 01:42:00,
2013-05-26 21:52:00,55.0,-99.9,30.06,NW,307,9.0,20.0,-999,-99.99,,,-99.99,,2013-05-27 01:52:00,
2013-05-26 22:02:00,55.0,-99.9,30.06,NW,306,11.0,16.0,-999,-99.99,,,-99.99,,2013-05-27 02:02:00,
2013-05-26 22:11:00,55.0,-99.9,30.07,NW,314,12.0,16.0,-999,-99.99,,,-99.99,,2013-05-27 02:11:00,
2013-05-26 22:22:00,55.0,-99.9,30.07,NW,311,13.0,21.0,-999,-99.99,,,-99.99,,2013-05-27 02:22:00,
2013-05-26 22:32:00,55.0,-99.9,30.08,NW,305,14.0,21.0,-999,-99.99,,,-99.99,,2013-05-27 02:32:00,
2013-05-26 22:43:00,55.0,-99.9,30.08,NW,319,15.0,23.0,-999,-99.99,,,-99.99,,2013-05-27 02:43:00,
2013-05-26 22:52:00,55.0,-99.9,30.08,WNW,299,12.0,20.0,-999,-99.99,,,-99.99,,2013-05-27 02:52:00,
2013-05-26 23:02:00,55.0,-99.9,30.08,WNW,291,9.0,18.0,-999,-99.99,,,-99.99,,2013-05-27 03:02:00,
2013-05-26 23:11:00,54.0,-99.9,30.08,WNW,292,9.0,15.0,-999,-99.99,,,-99.99,,2013-05-27 03:11:00,
2013-05-26 23:22:00,54.0,-99.9,30.09,WNW,300,11.0,18.0,-999,-99.99,,,-99.99,,2013-05-27 03:22:00,
2013-05-26 23:33:00,54.0,-99.9,30.09,NW,304,10.0,20.0,-999,-99.99,,,-99.99,,2013-05-27 03:33:00,
2013-05-26 23:43:00,53.0,-99.9,30.09,WNW,298,9.0,18.0,-999,-99.99,,,-99.99,,2013-05-27 03:43:00,
2013-05-26 23:54:00,53.0,-99.9,30.09,WNW,299,9.0,21.0,-999,-99.99,,,-99.99,,2013-05-27 03:54:00,